User: anonymous   Login
Location: Unspecified
(0.0000°N, 0.0000°E)
Time: 09:08:53
(UTC+00:00)
Language:

SR - Orbit

View from above orbital plane
View from above orbital plane
View from above satellite
View from above satellite

Ground track
Ground track

The orbit data is extracted from the following two-line orbital elements,

1    46U 60007B   20093.83021405 +.00000072 +00000-0 +37369-4 0  9991
2    46 066.6894 250.8388 0211292 189.6082 170.0960 14.49283019128157
Epoch (UTC): 02 April 2020 19:55:30
Eccentricity: 0.0211292
inclination: 66.6894°
perigee height: 578 km
apogee height: 878 km
right ascension of ascending node: 250.8388°
argument of perigee: 189.6082°
revolutions per day: 14.49283019
mean anomaly at epoch: 170.0960°
orbit number at epoch: 12815

The dashed part of the orbit path shows where the satellite is in the earth's shadow,  

DLR